Preview of NWS' New Version of Forecast
This preview is not operational and should not be used for support decisions.

Regional Weather Roundup (RWR)

Issued by Gray - Portland, ME (GYX)

                            
000
ASUS41 KGYX 240610
RWRGYX
WEATHER ROUNDUP FOR MAINE AND NEW HAMPSHIRE
NATIONAL WEATHER SERVICE GRAY ME
200 AM EDT FRI MAY 24 2019

MEZ002-005-006-010-012-015-018-020-021-024-026-027-029-240700-
MAINE
  
CITY           SKY/WX    TMP DP  RH WIND       PRES   REMARKS
PORTLAND       CLOUDY    53  52  96 S3        29.62F                  
6HR MIN TEMP:  52; 6HR MAX TEMP:  56; 6HR PCP:  0.32;                

SANFORD        CLOUDY    55  55 100 CALM      29.64F                  
BAR HARBOR     RAIN      47  46  97 VRB3      29.68F FOG              
WISCASSET      CLOUDY    51  50  96 CALM      29.64F FOG              
6HR MIN TEMP:  50; 6HR MAX TEMP:  53; 6HR PCP:  0.26;                

ROCKLAND       LGT RAIN  49  49 100 CALM      29.64F FOG              
FRYEBURG       FAIR      53  52  96 CALM      29.60F FOG              
6HR MIN TEMP:  52; 6HR MAX TEMP:  59; 6HR PCP:  0.22;                

LEWISTONAUBURN CLOUDY    52  52 100 CALM      29.62F                  
AUGUSTA        LGT RAIN  50  50 100 CALM      29.63F FOG              
6HR MIN TEMP:  50; 6HR MAX TEMP:  54; 6HR PCP:  0.14;                

WATERVILLE     LGT RAIN  50  50 100 CALM      29.61F                  
BANGOR         LGT RAIN  49  48  97 E8        29.67F                  
6HR MIN TEMP:  49; 6HR MAX TEMP:  53; 6HR PCP:  0.13;                

GREENVILLE       N/A     46  45  96 SE8       29.61F                  
6HR MIN TEMP:  46; 6HR MAX TEMP:  53; 6HR PCP:  0.28;                

MILLINOCKET    LGT RAIN  49  47  93 E9        29.69F                  
6HR MIN TEMP:  49; 6HR MAX TEMP:  59; 6HR PCP:  0.31;                

HOULTON        LGT RAIN  48  46  93 E10G16    29.72F                  
6HR MIN TEMP:  49; 6HR MAX TEMP:  58; 6HR PCP:  0.09;                

PRESQUE ISLE   LGT RAIN  50  47  89 E8        29.77F                  
6HR MIN TEMP:  50; 6HR MAX TEMP:  59; 6HR PCP:  0.03;                

FRENCHVILLE    LGT RAIN  52  45  77 E7        29.78F                  
6HR MIN TEMP:  52; 6HR MAX TEMP:  61; 6HR PCP:  0.01;                

CARIBOU        LGT RAIN  51  46  83 E8        29.77F                  
6HR MIN TEMP:  51; 6HR MAX TEMP:  61; 6HR PCP:  0.04;                

$$

NHZ002-005-008-009-011-012-014-240700-
NEW HAMPSHIRE
  
CITY           SKY/WX    TMP DP  RH WIND       PRES   REMARKS
PORTSMOUTH     MOCLDY    57  56  97 W3        29.63F                  
ROCHESTER      FAIR      56  54  93 CALM      29.63F FOG              
6HR MIN TEMP:  56; 6HR MAX TEMP:  62; 6HR PCP:  0.19;                

NASHUA         FAIR      59  59 100 S5        29.67F                  
MANCHESTER     FAIR      57  57 100 S7        29.64F                  
6HR MIN TEMP:  57; 6HR MAX TEMP:  63; 6HR PCP:  0.22;                

CONCORD        FAIR      55  54  96 CALM      29.65F                  
6HR MIN TEMP:  53; 6HR MAX TEMP:  61; 6HR PCP:  0.65;                

LACONIA        MOCLDY    56  55  97 SW5       29.64F                  
PLYMOUTH       CLOUDY    56  55  95 CALM      29.63F                  
BERLIN         NOT AVBL                                               
WHITEFIELD     MOCLDY    57  53  86 SW5       29.61F                  
6HR MIN TEMP:  55; 6HR MAX TEMP:  59; 6HR PCP:  0.12;                

JAFFREY        FAIR      57  54  89 S8        29.70F                  
6HR MIN TEMP:  57; 6HR MAX TEMP:  60; 6HR PCP:  0.17;                

KEENE          FOG       52  52 100 CALM      29.70S VSB 1/2          
LEBANON        FAIR      55  51  86 NE6       29.66F                  
6HR MIN TEMP:  55; 6HR MAX TEMP:  60; 6HR PCP:  0.09;                

MT WASHINGTON  FOG       41  41 100 W68G74      N/A  VSB 0            
6HR MIN TEMP:  41; 6HR MAX TEMP:  44; 6HR PCP:  0.13;                

$$

VTZ005-007-008-240700-
VERMONT
  
CITY           SKY/WX    TMP DP  RH WIND       PRES   REMARKS
ST JOHNSBURY     N/A     60  55  83 MISG      29.59F                  
MONTPELIER     CLOUDY    59  51  75 VRB7      29.69F                  
BURLINGTON     MOCLDY    63  50  63 W10       29.64F                  
$$

MAZ007-012-024-CTZ003-RIZ002-NYZ038-NYZ072-240700-
SOUTHERN NEW ENGLAND AND NY
  
CITY           SKY/WX    TMP DP  RH WIND       PRES   REMARKS
BOSTON         MOCLDY    64  59  83 SW17      29.68S                  
WORCESTER      FAIR      57  57 100 W8        29.72F                  
NANTUCKET      MOCLDY    58  56  93 SW20      29.75F THUNDER          
PROVIDENCE     LGT RAIN  62  61  96 SW7       29.75F FOG              
HARTFORD       MOCLDY    64  58  80 W8        29.75S                  
ALBANY         FAIR      62  55  77 W12       29.76F                  
NEW YORK CITY  MOCLDY    70  64  81 W10       29.79S                  
$$

ANZ081-ANZ082-ANZ150-NHZ014-MEZ023>029-240700-
COASTAL MARINE OBSERVATIONS
  
STATION/POSITION TIME  TEMP    WIND        PRES    WAVE
                       AIR SEA DIR/SP/G            HT/PER
                 (UTC) (F)     (DEG/KT/KT) (MB)    (FT/S)
ISLE OF SHOALS   0500   54     190/ 15/ 16 1003.6F
JEFFREYS LEDGE   0538      47                N/A     5/ 6
GEORGES BANK BUO 0550   50 44  170/ 16/ 17 1013.5F   4/ 6
$$

.............KEY..............
   WCI - WIND CHILL
   TC  - TEMPERATURE IN CELSIUS
   VSB - VISIBILITY IN MILES
   HX  - HEAT INDEX
   FAIR- INDICATES FEW OR NO CLOUDS BELOW 12,000 FT, WITH NO 
         SIGNIFICANT WEATHER AND/OR OBSTRUCTIONS TO VISIBILITY.